This demonstration page uses our WeatherBlox Daily Observations layout. Learn more.

Left ArrowRight Arrow

53.62937, 11.41316

Hourly Observations for April 1, 2016

Temp ( °F °C ) Dew Point ( °F °C ) Humidity (%) Winds ( mph kmh ) Pressure ( in mb ) Visibility ( mi km ) Precip ( " mm )
6:20 am 06:20 Partly Cloudy 37 3 32 0 81 81 NW 3 6 30.03 1017 30 48 N/A
6:50 am 06:50 Mostly Sunny 34 1 30 -1 87 87 VRB 1 2 30.03 1017 30 48 N/A
7:20 am 07:20 Mostly Sunny 32 0 30 -1 93 93 VRB 2 4 30.06 1018 7 11 N/A
7:50 am 07:50 Mostly Sunny 32 0 30 -1 93 93 VRB 1 2 30.06 1018 7 11 N/A
8:20 am 08:20 Mostly Sunny 36 2 32 0 87 87 VRB 1 2 30.09 1019 7 11 N/A
8:50 am 08:50 Mostly Sunny 39 4 32 0 75 75 NW 6 9 30.09 1019 7 11 N/A
9:20 am 09:20 Mostly Sunny 39 4 32 0 75 75 NW 6 9 30.12 1020 7 11 N/A
9:50 am 09:50 Mostly Sunny 41 5 32 0 70 70 NNW 6 9 30.12 1020 7 11 N/A
10:20 am 10:20 Mostly Sunny 43 6 30 -1 61 61 WNW 6 9 30.12 1020 7 11 N/A
10:50 am 10:50 Mostly Sunny 45 7 30 -1 57 57 WNW 6 9 30.12 1020 7 11 N/A
11:20 am 11:20 Mostly Sunny 45 7 30 -1 57 57 NW 5 7 30.15 1021 7 11 N/A
11:50 am 11:50 Mostly Sunny 45 7 30 -1 57 57 NNW 6 9 30.15 1021 7 11 N/A
12:20 pm 12:20 Mostly Sunny 46 8 28 -2 50 50 VRB 5 7 30.15 1021 7 11 N/A
12:50 pm 12:50 Mostly Sunny 48 9 30 -1 50 50 VRB 6 9 30.18 1022 7 11 N/A
1:20 pm 13:20 Mostly Sunny 48 9 27 -3 43 43 NW 6 9 30.18 1022 7 11 N/A
1:50 pm 13:50 Mostly Sunny 48 9 28 -2 46 46 NW 8 13 30.18 1022 7 11 N/A
2:20 pm 14:20 Mostly Sunny 48 9 28 -2 46 46 NNW 7 11 30.18 1022 7 11 N/A
2:50 pm 14:50 Mostly Sunny 50 10 27 -3 40 40 VRB 7 11 30.18 1022 7 11 N/A
3:20 pm 15:20 Mostly Sunny 50 10 27 -3 40 40 N 7 11 30.18 1022 7 11 N/A
3:50 pm 15:50 Mostly Sunny 52 11 27 -3 38 38 N 7 11 30.18 1022 7 11 N/A
4:20 pm 16:20 Mostly Sunny 52 11 27 -3 38 38 NW 6 9 30.18 1022 7 11 N/A
4:50 pm 16:50 Mostly Sunny 54 12 25 -4 33 33 VRB 3 6 30.18 1022 7 11 N/A
5:20 pm 17:20 Mostly Sunny 52 11 25 -4 35 35 VRB 5 7 30.18 1022 7 11 N/A
5:50 pm 17:50 Mostly Sunny 52 11 25 -4 35 35 VRB 3 6 30.18 1022 7 11 N/A
6:20 pm 18:20 Mostly Sunny 52 11 25 -4 35 35 NNW 3 6 30.18 1022 7 11 N/A
6:50 pm 18:50 Mostly Sunny 50 10 27 -3 40 40 VRB 2 4 30.18 1022 7 11 N/A

Powered by AerisWeather